Weather History for Versailles, OH

Change the Weather History Date:

Sunday, August 17, 2014

  Actual Average (KDAY) Record (KDAY)
Temperature  
Mean Temperature 68 °F 73 °F  
Max Temperature 78 °F 83 °F 102 °F (1988)
Min Temperature 59 °F 63 °F 43 °F (1902)
Degree Days  
Heating Degree Days 0 0  
Month to date heating degree days 0  
Since 1 June heating degree days 22  
Since 1 July heating degree days 0  
Cooling Degree Days 4 8  
Month to date cooling degree days 142  
Year to date cooling degree days 681  
Since 1 June cooling degree days 611  
Growing Degree Days 18 (Base 50)    
Moisture  
Dew Point 65 °F    
Average Humidity 85    
Maximum Humidity 100    
Minimum Humidity 61    
Precipitation  
Precipitation 0.00 in 0.10 in 1.95 in (1926)
Month to date precipitation 1.60  
Year to date precipitation 26.92  
Snow  
Snow 0.00 in 0.00 in 0.00 in ()
Month to date snowfall 0.0  
Since 1 June snowfall 0.0  
Since 1 July snowfall 0.0  
Snow Depth -    
Sea Level Pressure  
Sea Level Pressure 29.97 in    
Wind  
Wind Speed 3 mph (SSE)    
Max Wind Speed 9 mph    
Max Gust Speed -    
Visibility 8 miles    
Events Fog    
T = Trace of Precipitation, MM = Missing Value Source: NWS Daily Summary

Daily Weather History Graph

Daily Weather History Graph

Search for Another Location

Airport:

Trip Planner

Search our weather history database for the weather conditions in past years. The results will help you decide how hot, cold, wet, or windy it might be!

Date:

Astronomy

Aug. 17, 2014 Rise Set
Actual Time 6:51 AM EDT 8:32 PM EDT
Civil Twilight 6:22 AM EDT 9:01 PM EDT
Nautical Twilight 5:47 AM EDT 9:36 PM EDT
Astronomical Twilight 5:09 AM EDT 10:13 PM EDT
Moon 12:16 AM EDT (8/17) 2:36 PM EDT (8/17)
Length of Visible Light 14h 38m
Length of Day
13h 41m
Waning Gibbous, 48% of the Moon is Illuminated
Aug 17
Waning Gibbous
Aug 25
New
Sep 2
First Quarter
Sep 8
Full
Sep 15
Last Quarter

Hourly Weather History & Observations

Time (EDT) Temp. Dew Point Humidity Pressure Visibility Wind Dir Wind Speed Gust Speed Precip Events Conditions
12:15 AM 68.0 °F 68.0 °F 100% 29.99 in 10.0 mi WSW 6.9 mph - N/A   Overcast
12:35 AM 68.0 °F 68.0 °F 100% 29.99 in 10.0 mi West 4.6 mph - N/A   Overcast
12:55 AM 68.0 °F 68.0 °F 100% 30.00 in 10.0 mi West 4.6 mph - N/A   Overcast
1:15 AM 68.0 °F 68.0 °F 100% 30.00 in 10.0 mi West 3.5 mph - N/A   Overcast
1:55 AM 66.2 °F 66.2 °F 100% 29.99 in 10.0 mi Calm Calm - N/A   Overcast
2:15 AM 66.2 °F 66.2 °F 100% 29.99 in 10.0 mi WSW 3.5 mph - N/A   Overcast
2:35 AM 68.0 °F 68.0 °F 100% 29.99 in 10.0 mi WSW 4.6 mph - N/A   Overcast
2:55 AM 66.2 °F 66.2 °F 100% 29.98 in 10.0 mi WSW 4.6 mph - N/A   Overcast
3:15 AM 66.2 °F 66.2 °F 100% 29.98 in 7.0 mi WSW 3.5 mph - N/A   Overcast
3:35 AM 64.4 °F 64.4 °F 100% 29.98 in 7.0 mi Calm Calm - N/A   Mostly Cloudy
3:55 AM 64.4 °F 64.4 °F 100% 29.98 in 7.0 mi Calm Calm - N/A   Clear
4:15 AM 64.4 °F 64.4 °F 100% 29.98 in 4.0 mi SW 3.5 mph - N/A   Clear
4:35 AM 62.6 °F 62.6 °F 100% 29.97 in 3.0 mi Calm Calm - N/A   Clear
4:55 AM 62.6 °F 62.6 °F 100% 29.97 in 2.5 mi Calm Calm - N/A   Clear
5:15 AM 62.6 °F 62.6 °F 100% 29.97 in 1.0 mi Calm Calm - N/A   Mist
5:35 AM 62.6 °F 62.6 °F 100% 29.97 in 1.2 mi Calm Calm - N/A   Scattered Clouds
5:55 AM 62.6 °F 62.6 °F 100% 29.97 in 1.5 mi Calm Calm - N/A   Mist
6:15 AM 62.6 °F 62.6 °F 100% 29.98 in 0.2 mi Calm Calm - N/A Fog Fog
6:35 AM 59.0 °F 59.0 °F 100% 29.99 in 0.2 mi Calm Calm - N/A Fog Fog
6:55 AM 60.8 °F 60.8 °F 100% 29.99 in 0.2 mi Calm Calm - N/A Fog Fog
7:15 AM 60.8 °F 60.8 °F 100% 29.99 in 0.2 mi Calm Calm - N/A Fog Fog
7:35 AM 60.8 °F 60.8 °F 100% 30.00 in 0.2 mi Calm Calm - N/A Fog Fog
7:55 AM 62.6 °F 62.6 °F 100% 29.99 in 0.2 mi Calm Calm - N/A Fog Fog
8:15 AM 62.6 °F 62.6 °F 100% 30.00 in 0.2 mi Calm Calm - N/A Fog Fog
8:35 AM 64.4 °F 64.4 °F 100% 30.01 in 0.2 mi Calm Calm - N/A Fog Fog
8:55 AM 64.4 °F 64.4 °F 100% 30.01 in 0.8 mi Calm Calm - N/A   Overcast
9:15 AM 66.2 °F 66.2 °F 100% 30.00 in 1.8 mi Calm Calm - N/A   Overcast
9:35 AM 68.0 °F 68.0 °F 100% 30.00 in 5.0 mi SSE 3.5 mph - N/A   Scattered Clouds
9:55 AM 68.0 °F 68.0 °F 100% 30.00 in 10.0 mi Calm Calm - N/A   Clear
10:15 AM 71.6 °F 68.0 °F 88% 30.00 in 10.0 mi Calm Calm - N/A   Clear
10:35 AM 73.4 °F 66.2 °F 78% 30.00 in 10.0 mi Calm Calm - N/A   Clear
10:55 AM 75.2 °F 66.2 °F 73% 30.00 in 10.0 mi Calm Calm - N/A   Clear
11:15 AM 77.0 °F 66.2 °F 69% 30.00 in 10.0 mi Calm Calm - N/A   Clear
11:35 AM 77.0 °F 66.2 °F 69% 30.01 in 10.0 mi Calm Calm - N/A   Scattered Clouds
12:15 PM 77.0 °F 64.4 °F 65% 30.00 in 10.0 mi South 4.6 mph - N/A   Overcast
12:35 PM 77.0 °F 66.2 °F 69% 29.99 in 10.0 mi South 3.5 mph - N/A   Overcast
12:55 PM 77.0 °F 64.4 °F 65% 29.99 in 10.0 mi SE 4.6 mph - N/A   Overcast
1:15 PM 77.0 °F 64.4 °F 65% 29.99 in 10.0 mi SSE 5.8 mph - N/A   Overcast
1:35 PM 77.0 °F 66.2 °F 69% 29.98 in 10.0 mi South 3.5 mph - N/A   Overcast
1:55 PM 77.0 °F 64.4 °F 65% 29.97 in 10.0 mi SE 4.6 mph - N/A   Overcast
2:15 PM 77.0 °F 64.4 °F 65% 29.97 in 10.0 mi SSE 4.6 mph - N/A   Overcast
2:35 PM 77.0 °F 66.2 °F 69% 29.97 in 10.0 mi SSE 6.9 mph - N/A   Overcast
2:55 PM 77.0 °F 66.2 °F 69% 29.97 in 10.0 mi South 9.2 mph - N/A   Overcast
3:15 PM 77.0 °F 64.4 °F 65% 29.97 in 10.0 mi SSE 4.6 mph - N/A   Overcast
3:35 PM 77.0 °F 64.4 °F 65% 29.97 in 10.0 mi SSE 4.6 mph - N/A   Mostly Cloudy
3:55 PM 77.0 °F 64.4 °F 65% 29.96 in 10.0 mi SSE 8.1 mph - N/A   Overcast
4:15 PM 77.0 °F 64.4 °F 65% 29.95 in 10.0 mi SE 5.8 mph - N/A   Overcast
4:35 PM 77.0 °F 64.4 °F 65% 29.95 in 10.0 mi Calm Calm - N/A   Mostly Cloudy
4:55 PM 77.0 °F 64.4 °F 65% 29.95 in 10.0 mi SE 5.8 mph - N/A   Mostly Cloudy
5:15 PM 77.0 °F 64.4 °F 65% 29.95 in 10.0 mi SE 5.8 mph - N/A   Mostly Cloudy
5:35 PM 77.0 °F 64.4 °F 65% 29.95 in 10.0 mi SSE 5.8 mph - N/A   Overcast
5:55 PM 78.8 °F 64.4 °F 61% 29.95 in 10.0 mi SE 6.9 mph - N/A   Mostly Cloudy
6:15 PM 77.0 °F 64.4 °F 65% 29.94 in 10.0 mi South 4.6 mph - N/A   Mostly Cloudy
6:35 PM 77.0 °F 64.4 °F 65% 29.95 in 10.0 mi SSE 4.6 mph - N/A   Overcast
6:55 PM 77.0 °F 64.4 °F 65% 29.94 in 10.0 mi South 4.6 mph - N/A   Overcast
7:15 PM 75.2 °F 64.4 °F 69% 29.94 in 10.0 mi SSE 3.5 mph - N/A   Overcast
7:35 PM 73.4 °F 66.2 °F 78% 29.94 in 10.0 mi SSE 3.5 mph - N/A   Overcast
7:55 PM 73.4 °F 68.0 °F 83% 29.94 in 10.0 mi Calm Calm - N/A   Overcast
8:15 PM 73.4 °F 68.0 °F 83% 29.93 in 10.0 mi SE 3.5 mph - N/A   Overcast
8:35 PM 71.6 °F 66.2 °F 83% 29.93 in 10.0 mi Calm Calm - N/A   Overcast
8:55 PM 71.6 °F 68.0 °F 88% 29.94 in 10.0 mi Calm Calm - N/A   Overcast
9:15 PM 71.6 °F 68.0 °F 88% 29.94 in 10.0 mi Calm Calm - N/A   Overcast
9:35 PM 69.8 °F 68.0 °F 94% 29.94 in 10.0 mi SSE 3.5 mph - N/A   Overcast
9:55 PM 69.8 °F 68.0 °F 94% 29.94 in 10.0 mi SE 3.5 mph - N/A   Mostly Cloudy
10:15 PM 68.0 °F 66.2 °F 94% 29.95 in 10.0 mi Calm Calm - N/A   Scattered Clouds
10:35 PM 68.0 °F 64.4 °F 88% 29.95 in 10.0 mi NE 3.5 mph - N/A   Scattered Clouds
10:55 PM 68.0 °F 66.2 °F 94% 29.94 in 10.0 mi Calm Calm - N/A   Mostly Cloudy
11:15 PM 66.2 °F 64.4 °F 94% 29.94 in 10.0 mi Calm Calm - N/A   Scattered Clouds
11:35 PM 64.4 °F 64.4 °F 100% 29.94 in 10.0 mi NE 3.5 mph - N/A   Clear
11:55 PM 66.2 °F 64.4 °F 94% 29.94 in 10.0 mi Calm Calm - N/A   Clear